Back to catalog

ECHOSTAR 2

AliveCommunicationsGEO
NORAD 24313·PAYLOAD·🇺🇸 United States

Launched Sep 11, 1996 from Guiana Space Centre

Loading…

TLE

FreshSource: Space-Track

Epoch: Sep 14, 2026, 08:42 UTC

1 24313U 96055A   26257.36273455 -.00000301  00000-0  00000-0 0  9990
2 24313  12.1049  30.8316 0011058 104.8879 285.2998  1.00299288109917

Track ECHOSTAR 2 in real time with AllMySat

Download on the App Store